ECHOSTAR 16 1 39008U 12065A 21060.55865582 -.00000289 00000-0 00000-0 0 9997 2 39008 0.0186 165.5442 0002026 184.8428 308.7829 1.00271380 30236 BREEZE-M R/B 1 39009U 12065B 21060.07031734 .00000066 00000-0 00000+0 0 9990 2 39009 29.7641 233.2055 6927495 233.7142 41.0464 2.23058830 67492 BREEZE-M DEB [TANK] 1 39010U 12065C 21060.57497766 .00000489 00000-0 12236-3 0 9995 2 39010 49.6812 285.6946 4654061 316.0385 15.1791 6.16708892185114